Tiempo cada hora Dąbie

Hoy, 4 Agosto, Miércoles

Tiempo Temperatura Precipitaciones Viento Presión Humedad
00:00 +16°C° 0.2 mm 1 mps 751 mmHg 85%
01:00 +15°C° 0.2 mm 1 mps 751 mmHg 88%
02:00 +15°C° 0.1 mm 1 mps 751 mmHg 89%
03:00 +15°C° 0.1 mm 1 mps 751 mmHg 89%
04:00 +15°C° 0.1 mm 1 mps 751 mmHg 89%
05:00 +16°C° 0.3 mm 1 mps 751 mmHg 88%
06:00 +16°C° 0.3 mm 1 mps 751 mmHg 87%
07:00 +18°C° 0.3 mm 1 mps 751 mmHg 86%
08:00 +17°C° 0.7 mm 2 mps 751 mmHg 86%
09:00 +17°C° 0.7 mm 2 mps 752 mmHg 86%
10:00 +17°C° 0.7 mm 3 mps 752 mmHg 86%
11:00 +18°C° 0.4 mm 3 mps 752 mmHg 82%
12:00 +19°C° 0.4 mm 3 mps 752 mmHg 77%
13:00 +19°C° 0.4 mm 3 mps 751 mmHg 73%
14:00 +20°C° 0.1 mm 2 mps 751 mmHg 68%
15:00 +21°C° 0.1 mm 2 mps 751 mmHg 63%
16:00 +23°C° 0.1 mm 2 mps 751 mmHg 58%
17:00 +21°C° 0.1 mm 2 mps 751 mmHg 62%
18:00 +21°C° 0.1 mm 1 mps 751 mmHg 67%
19:00 +20°C° 0.1 mm 1 mps 751 mmHg 71%
20:00 +19°C° 0 mm 1 mps 751 mmHg 74%
21:00 +17°C° 0 mm 2 mps 751 mmHg 78%
22:00 +16°C° 0 mm 2 mps 751 mmHg 81%
23:00 +16°C° 0 mm 2 mps 751 mmHg 83%

Mañana, 5 Agosto, Jueves

Tiempo Temperatura Precipitaciones Viento Presión Humedad
00:00 +16°C° 0 mm 2 mps 751 mmHg 84%
01:00 +15°C° 0 mm 1 mps 751 mmHg 86%
02:00 +15°C° 0 mm 2 mps 750 mmHg 88%
03:00 +15°C° 0 mm 2 mps 750 mmHg 89%
04:00 +14°C° 0 mm 2 mps 750 mmHg 91%
05:00 +15°C° 0 mm 2 mps 750 mmHg 87%
06:00 +17°C° 0 mm 3 mps 750 mmHg 83%
07:00 +18°C° 0 mm 3 mps 750 mmHg 79%
08:00 +19°C° 0 mm 3 mps 750 mmHg 74%
09:00 +20°C° 0 mm 3 mps 750 mmHg 68%
10:00 +21°C° 0 mm 4 mps 750 mmHg 62%
11:00 +22°C° 0 mm 4 mps 749 mmHg 59%
12:00 +22°C° 0 mm 4 mps 749 mmHg 56%
13:00 +23°C° 0 mm 4 mps 749 mmHg 54%
14:00 +22°C° 0.1 mm 4 mps 749 mmHg 59%
15:00 +21°C° 0.1 mm 4 mps 748 mmHg 64%
16:00 +20°C° 0.1 mm 3 mps 748 mmHg 70%
17:00 +19°C° 0.3 mm 3 mps 748 mmHg 76%
18:00 +18°C° 0.3 mm 2 mps 748 mmHg 82%
19:00 +18°C° 0.3 mm 2 mps 748 mmHg 88%
20:00 +17°C° 0.4 mm 2 mps 747 mmHg 90%
21:00 +17°C° 0.4 mm 2 mps 747 mmHg 92%
22:00 +17°C° 0.4 mm 2 mps 747 mmHg 94%
23:00 +16°C° 1.9 mm 2 mps 747 mmHg 95%

Pasado mañana, 6 Agosto, Viernes

Tiempo Temperatura Precipitaciones Viento Presión Humedad
00:00 +16°C° 1.9 mm 3 mps 746 mmHg 95%
01:00 +16°C° 1.9 mm 3 mps 746 mmHg 96%
02:00 +15°C° 1.8 mm 4 mps 746 mmHg 96%
03:00 +15°C° 1.8 mm 4 mps 746 mmHg 96%
04:00 +15°C° 1.8 mm 5 mps 745 mmHg 96%
05:00 +15°C° 0.8 mm 5 mps 745 mmHg 95%
06:00 +15°C° 0.8 mm 4 mps 745 mmHg 95%
07:00 +14°C° 0.8 mm 4 mps 745 mmHg 94%
08:00 +14°C° 0.3 mm 4 mps 746 mmHg 94%
09:00 +14°C° 0.3 mm 4 mps 746 mmHg 93%
10:00 +14°C° 0.3 mm 4 mps 746 mmHg 92%
11:00 +14°C° 0.3 mm 4 mps 746 mmHg 92%
12:00 +14°C° 0.3 mm 3 mps 747 mmHg 92%
13:00 +14°C° 0.3 mm 3 mps 747 mmHg 91%
14:00 +16°C° 0 mm 3 mps 747 mmHg 89%
15:00 +16°C° 0 mm 3 mps 747 mmHg 86%
16:00 +17°C° 0 mm 2 mps 747 mmHg 83%
17:00 +16°C° 0 mm 2 mps 747 mmHg 85%
18:00 +16°C° 0 mm 2 mps 747 mmHg 86%
19:00 +16°C° 0 mm 1 mps 747 mmHg 88%
20:00 +15°C° 0 mm 1 mps 748 mmHg 89%
21:00 +15°C° 0 mm 1 mps 748 mmHg 90%
22:00 +14°C° 0 mm 1 mps 748 mmHg 90%
23:00 +14°C° 0 mm 1 mps 748 mmHg 90%

7 Agosto, Sábado

Tiempo Temperatura Precipitaciones Viento Presión Humedad
00:00 +14°C° 0 mm 1 mps 748 mmHg 90%
01:00 +13°C° 0 mm 1 mps 748 mmHg 89%
02:00 +13°C° 0 mm 2 mps 748 mmHg 89%
03:00 +13°C° 0 mm 2 mps 748 mmHg 89%
04:00 +13°C° 0 mm 2 mps 748 mmHg 88%
05:00 +14°C° 0 mm 2 mps 748 mmHg 83%
06:00 +15°C° 0 mm 2 mps 748 mmHg 78%
07:00 +17°C° 0 mm 2 mps 749 mmHg 73%
08:00 +19°C° 0 mm 2 mps 749 mmHg 67%
09:00 +21°C° 0 mm 2 mps 749 mmHg 61%
10:00 +22°C° 0 mm 3 mps 749 mmHg 56%
11:00 +24°C° 0 mm 3 mps 749 mmHg 54%
12:00 +25°C° 0 mm 3 mps 748 mmHg 53%
13:00 +26°C° 0 mm 3 mps 748 mmHg 51%
14:00 +27°C° 0 mm 3 mps 748 mmHg 51%
15:00 +27°C° 0 mm 2 mps 748 mmHg 50%
16:00 +27°C° 0 mm 2 mps 748 mmHg 49%
17:00 +26°C° 0 mm 2 mps 748 mmHg 53%
18:00 +25°C° 0 mm 2 mps 748 mmHg 57%
19:00 +24°C° 0 mm 2 mps 748 mmHg 61%
20:00 +23°C° 0 mm 2 mps 748 mmHg 61%
21:00 +22°C° 0 mm 3 mps 748 mmHg 61%
22:00 +21°C° 0 mm 3 mps 748 mmHg 62%
23:00 +21°C° 0 mm 3 mps 748 mmHg 64%

8 Agosto, Domingo

Tiempo Temperatura Precipitaciones Viento Presión Humedad
00:00 +20°C° 0 mm 3 mps 748 mmHg 66%
01:00 +20°C° 0 mm 3 mps 748 mmHg 69%
02:00 +20°C° 0.1 mm 3 mps 747 mmHg 72%
03:00 +19°C° 0.1 mm 2 mps 747 mmHg 76%
04:00 +20°C° 0.1 mm 1 mps 747 mmHg 79%
05:00 +19°C° 0.1 mm 2 mps 748 mmHg 82%
06:00 +19°C° 0.1 mm 3 mps 748 mmHg 85%
07:00 +19°C° 0.1 mm 4 mps 749 mmHg 88%
08:00 +20°C° 0 mm 4 mps 749 mmHg 83%
09:00 +21°C° 0 mm 5 mps 750 mmHg 78%
10:00 +22°C° 0 mm 5 mps 751 mmHg 73%
11:00 +23°C° 0 mm 5 mps 751 mmHg 67%
12:00 +25°C° 0 mm 5 mps 751 mmHg 62%
13:00 +26°C° 0 mm 5 mps 752 mmHg 56%
14:00 +26°C° 0 mm 4 mps 752 mmHg 53%
15:00 +26°C° 0 mm 4 mps 752 mmHg 50%
16:00 +27°C° 0 mm 4 mps 752 mmHg 46%
17:00 +26°C° 0 mm 3 mps 752 mmHg 51%
18:00 +24°C° 0 mm 2 mps 753 mmHg 56%
19:00 +23°C° 0 mm 2 mps 753 mmHg 61%
20:00 +23°C° 0 mm 2 mps 753 mmHg 60%
21:00 +21°C° 0 mm 2 mps 754 mmHg 59%
22:00 +21°C° 0 mm 2 mps 754 mmHg 58%
23:00 +20°C° 0 mm 2 mps 754 mmHg 60%

9 Agosto, Lunes

Tiempo Temperatura Precipitaciones Viento Presión Humedad
00:00 +20°C° 0 mm 3 mps 755 mmHg 61%
01:00 +19°C° 0 mm 3 mps 755 mmHg 63%
02:00 +19°C° 0 mm 3 mps 755 mmHg 67%
03:00 +18°C° 0 mm 2 mps 755 mmHg 71%
04:00 +17°C° 0 mm 2 mps 755 mmHg 75%
05:00 +18°C° 0 mm 2 mps 755 mmHg 73%
06:00 +19°C° 0 mm 2 mps 755 mmHg 71%
07:00 +20°C° 0 mm 2 mps 756 mmHg 68%
08:00 +21°C° 0 mm 2 mps 756 mmHg 63%
09:00 +24°C° 0 mm 2 mps 756 mmHg 58%
10:00 +25°C° 0 mm 3 mps 756 mmHg 53%
11:00 +26°C° 0 mm 3 mps 756 mmHg 50%
12:00 +27°C° 0 mm 3 mps 756 mmHg 47%
13:00 +27°C° 0 mm 3 mps 756 mmHg 44%
14:00 +27°C° 0 mm 2 mps 755 mmHg 45%
15:00 +27°C° 0 mm 2 mps 755 mmHg 46%
16:00 +26°C° 0 mm 2 mps 755 mmHg 47%
17:00 +25°C° 0 mm 1 mps 755 mmHg 49%
18:00 +24°C° 0 mm 1 mps 755 mmHg 52%
19:00 +23°C° 0 mm 1 mps 755 mmHg 54%
20:00 +23°C° 0 mm 1 mps 755 mmHg 54%
21:00 +22°C° 0 mm 1 mps 755 mmHg 55%
22:00 +22°C° 0 mm 1 mps 755 mmHg 55%
23:00 +21°C° 0.1 mm 1 mps 755 mmHg 59%
Mostrar más

Necesitamos Su Consentimiento

Meteoprog y nuestros Proveedores de Servicios pueden almacenar y acceder a sus datos personales como cookies, identificadores de dispositivo u otras tecnologías similares de su dispositivo y procesar dichos datos para personalizar contenido y anuncios, además de ofrecer funciones de redes sociales y analizar el tráfico.

  • Almacenar y/o acceder a información en su dispositivo

    Se puede almacenar o acceder a cookies, identificadores de dispositivo u otra información de su dispositivo para los fines anteriormente indicados.

  • Anuncios y contenido personalizados, medición de anuncios y contenido, percepciones del público, y desarrollo de productos

    Los anuncios y el contenido pueden personalizarse en base a su perfil. Se pueden añadir más datos para personalizar mejor los anuncios y contenidos. Se puede medir el rendimiento de los anuncios y contenidos. Se puede obtener la percepción sobre el público que ha visto los anuncios y contenidos. Dichos datos pueden usarse para desarrollar o mejorar la experiencia del usuario, sistemas y software.

Al hacer clic en ‘Estoy De Acuerdo’ usted permitirá el uso de las cookies, identificadores de dispositivo, balizas web u otras tecnologías similares indicadas. Su configuración puede cambiarse desde el navegador de su dispositivo.

Para ciertos fines, los intereses legítimos pueden ser considerados por encima del consentimiento. Puede leer más sobre ello en nuestra Política de Privacidad y Cookies.